Powrót do katalogu

STARLINK-37367

AktywnyŁącznośćVLEO
NORAD 68971·PAYLOAD·🇺🇸 United States

Wystrzelony May 1, 2026 z Cape Canaveral Space Force Station

Loading…

Następne Przeloty (najbliższe 24 godziny)

TLE

ŚwieżeSource: CelesTrak SupGP

Epoka: Sep 15, 2026, 03:25 UTC

1 68971C 26099W   26258.14284722 -.00006449  00000+0 -19056-3 0  2586
2 68971  53.1559 100.6423 0001253  88.0342 309.2392 15.34389509    19

Śledź STARLINK-37367 w czasie rzeczywistym z AllMySat

Download on the App Store